Tyrone Middle School FL US WEATHERSTEM current weather conditions

sailwx.info

Wind from 013 at 1 knots gusting 6

Air temperature 11.8° C
Dewpoint 10.4° C

Last reported at 2020-Feb-23 08:50 UTC.
Time now 2020-Feb-23 10:02 UTC

Location: N 27°48' W 082°44'.
View on Google Maps.

See reports from other nearby stations

  
Tides and Currents Weather Stations Pressure Air Temp Water Temp Dewpoint Dewpoint Depression Visibility Wind Speed Wind Dir Waves Ship Positions
date/time (UTC)wind fromknots sea level pressurealtimeterstation pressurevisibilityair tempwater tempwave heightnotes
2020-Feb-23 08:50 013 1 gusting 6 11.8
2020-Feb-23 08:40 360 1 gusting 5 11.8
2020-Feb-23 08:30 360 2 gusting 5 11.8
2020-Feb-23 08:20 360 0 gusting 3 11.8
2020-Feb-23 08:10 360 3 gusting 6 11.9
2020-Feb-23 08:00 360 3 gusting 5 11.9
2020-Feb-23 07:50 11.9
2020-Feb-23 07:40 360 1 gusting 5 11.9
2020-Feb-23 07:30 360 4 gusting 6 11.9
2020-Feb-23 07:20 11.9
2020-Feb-23 07:10 360 1 gusting 8 12.1
2020-Feb-23 06:50 360 2 gusting 7 12.2
2020-Feb-23 06:40 009 2 gusting 6 12.2
2020-Feb-23 06:30 022 1 gusting 4 12.2
2020-Feb-23 06:20 360 1 gusting 4 12.3
2020-Feb-23 06:10 360 1 gusting 5 12.4
2020-Feb-23 06:00 360 4 gusting 6 12.6
2020-Feb-23 05:50 360 5 gusting 5 12.6
2020-Feb-23 05:40 360 3 gusting 7 12.7
2020-Feb-23 05:30 017 3 gusting 4 12.7
2020-Feb-23 05:20 009 0 gusting 6 12.8
2020-Feb-23 05:10 360 2 gusting 6 12.9
2020-Feb-23 05:00 360 3 gusting 6 13.1
2020-Feb-23 04:50 360 3 gusting 5 13.2
2020-Feb-23 04:40 360 2 gusting 5 13.3
2020-Feb-23 04:30 360 1 gusting 6 13.4
2020-Feb-23 04:20 360 2 gusting 6 13.6
2020-Feb-23 04:10 022 5 gusting 7 13.7
2020-Feb-23 04:00 360 5 gusting 6 13.8
2020-Feb-23 03:50 360 2 gusting 8 13.9
2020-Feb-23 03:30 360 1 gusting 10 14.3
2020-Feb-23 03:20 360 2 gusting 7 14.3
2020-Feb-23 03:10 360 2 gusting 9 14.6
2020-Feb-23 03:00 360 1 gusting 6 14.8
2020-Feb-23 02:50 360 3 gusting 9 14.9
2020-Feb-23 02:40 025 2 gusting 7 15.1
2020-Feb-23 02:30 360 4 gusting 6 15.3
2020-Feb-23 02:20 360 2 gusting 8 15.5
2020-Feb-23 02:10 360 2 gusting 10 15.7
2020-Feb-23 02:00 360 4 gusting 13 15.8
2020-Feb-23 01:50 360 3 gusting 10 16.1
2020-Feb-23 01:40 360 10 gusting 11 16.3
2020-Feb-23 01:30 360 3 gusting 9 16.4
2020-Feb-23 01:20 360 4 gusting 9 16.6
2020-Feb-23 01:10 360 4 gusting 12 16.8
2020-Feb-23 01:00 360 5 gusting 10 17.0
2020-Feb-23 00:50 360 1 gusting 9 17.2
2020-Feb-23 00:40 360 4 gusting 13 17.5
2020-Feb-23 00:30 360 7 gusting 10 17.6
2020-Feb-23 00:20 360 1 gusting 7 17.2
2020-Feb-23 00:10 360 2 gusting 5 16.9
2020-Feb-23 00:00 17.1
2020-Feb-22 23:50 360 0 gusting 5 17.4
2020-Feb-22 23:40 360 3 gusting 5 17.7
2020-Feb-22 23:30 360 2 gusting 4 18.2
2020-Feb-22 23:20 360 0 gusting 5 18.6
2020-Feb-22 23:10 360 1 gusting 7 19.3
2020-Feb-22 23:00 360 3 gusting 6 19.9
2020-Feb-22 22:50 360 1 gusting 7 20.1
2020-Feb-22 22:40 360 2 gusting 7 20.3
2020-Feb-22 22:30 016 4 gusting 7 20.5
2020-Feb-22 22:20 360 1 gusting 7 20.5
2020-Feb-22 22:10 012 1 gusting 7 20.7
2020-Feb-22 22:00 360 2 gusting 7 20.8
2020-Feb-22 21:50 360 4 gusting 10 20.8
2020-Feb-22 21:40 360 3 gusting 10 21.1
2020-Feb-22 21:30 360 3 gusting 8 20.9
2020-Feb-22 21:20 360 3 gusting 10 21.2
2020-Feb-22 21:10 360 4 gusting 9 21.2
2020-Feb-22 21:00 014 2 gusting 6 20.8
2020-Feb-22 20:50 360 4 gusting 7 21.2
2020-Feb-22 20:40 360 3 gusting 9 20.7
2020-Feb-22 20:30 360 4 gusting 9 21.5
2020-Feb-22 20:20 360 1 gusting 9 21.0
2020-Feb-22 20:10 360 2 gusting 10 20.8
2020-Feb-22 20:00 017 3 gusting 9 20.8
2020-Feb-22 19:50 360 1 gusting 8 20.5
2020-Feb-22 19:40 360 5 gusting 11 20.8
2020-Feb-22 19:30 360 5 gusting 10 20.6
2020-Feb-22 19:20 360 5 gusting 11 20.2
2020-Feb-22 19:10 360 3 gusting 11 19.8
2020-Feb-22 19:00 360 5 gusting 11 20.0
2020-Feb-22 18:50 360 4 gusting 10 19.6
2020-Feb-22 18:40 360 4 gusting 11 19.3
2020-Feb-22 18:30 360 4 gusting 10 19.4
2020-Feb-22 18:20 360 6 gusting 12 19.3
2020-Feb-22 18:10 011 6 gusting 8 19.2
2020-Feb-22 18:00 015 4 gusting 10 18.4
2020-Feb-22 17:50 360 5 gusting 10 18.3
2020-Feb-22 17:40 18.2
2020-Feb-22 17:30 360 6 gusting 9 18.2
2020-Feb-22 17:20 360 9 gusting 11 17.4
2020-Feb-22 17:10 026 4 gusting 12 17.4
2020-Feb-22 17:00 024 2 gusting 11 16.9
2020-Feb-22 16:50 360 5 gusting 11 16.3
2020-Feb-22 16:40 360 7 gusting 12 16.7
2020-Feb-22 16:30 360 2 gusting 7 16.1
2020-Feb-22 16:20 360 1 gusting 11 15.2
2020-Feb-22 16:10 360 7 gusting 13 15.0
2020-Feb-22 16:00 360 4 gusting 11 14.6
2020-Feb-22 15:50 360 3 gusting 9 14.7
2020-Feb-22 15:40 009 3 gusting 10 13.9
2020-Feb-22 15:30 360 5 gusting 11 13.4
2020-Feb-22 15:20 360 3 gusting 11 13.1
2020-Feb-22 15:10 019 6 gusting 11 12.7
2020-Feb-22 15:00 360 6 gusting 13 12.8
2020-Feb-22 14:50 360 2 gusting 12 12.2
2020-Feb-22 14:40 360 10 gusting 12 11.6
2020-Feb-22 14:30 360 1 gusting 12 11.3
2020-Feb-22 14:20 360 4 gusting 9 10.6
2020-Feb-22 14:10 360 7 gusting 10 10.2
2020-Feb-22 14:00 360 1 gusting 10 9.7
2020-Feb-22 13:50 360 3 gusting 9 9.2
2020-Feb-22 13:40 360 4 gusting 12 8.8
2020-Feb-22 13:30 360 2 gusting 11 8.3
2020-Feb-22 13:10 360 1 gusting 6 7.4
2020-Feb-22 13:00 360 2 gusting 7 6.9
2020-Feb-22 12:50 024 1 gusting 7 6.6
2020-Feb-22 12:40 360 4 gusting 6 6.3
2020-Feb-22 12:30 022 1 gusting 5 6.1
2020-Feb-22 12:20 009 0 gusting 9 5.9
2020-Feb-22 12:10 360 3 gusting 6 5.9
2020-Feb-22 12:00 020 6 gusting 6 5.9
2020-Feb-22 11:50 019 2 gusting 6 5.8
2020-Feb-22 11:40 360 0 gusting 7 5.8
2020-Feb-22 11:30 360 2 gusting 6 5.8
2020-Feb-22 11:20 360 5 gusting 8 5.8
2020-Feb-22 11:10 360 4 gusting 9 5.8
2020-Feb-22 11:00 017 4 gusting 8 5.8
2020-Feb-22 10:50 360 2 gusting 8 5.8
2020-Feb-22 10:40 360 1 gusting 9 5.9
2020-Feb-22 10:30 360 2 gusting 8 5.9
2020-Feb-22 10:20 360 2 gusting 9 6.0
2020-Feb-22 10:10 360 3 gusting 11 6.1
2020-Feb-22 10:00 360 4 gusting 10 6.1
2020-Feb-22 09:50 360 3 gusting 10 6.1
2020-Feb-22 09:40 009 4 gusting 9 6.1
2020-Feb-22 09:30 360 2 gusting 9 6.0
2020-Feb-22 09:20 360 1 gusting 8 6.1
2020-Feb-22 09:10 360 5 gusting 10 6.3
2020-Feb-22 09:00 360 4 gusting 11 6.4
2020-Feb-22 08:50 360 5 gusting 10 6.6
2020-Feb-22 08:40 360 2 gusting 9 6.6
2020-Feb-22 08:30 024 2 gusting 10 6.6
2020-Feb-22 08:20 013 3 gusting 13 6.6
2020-Feb-22 08:10 360 2 gusting 13 6.7
2020-Feb-22 08:00 360 3 gusting 11 6.8
2020-Feb-22 07:50 009 3 gusting 10 6.9
2020-Feb-22 07:40 360 4 gusting 13 6.8
2020-Feb-22 07:30 360 3 gusting 10 6.9
2020-Feb-22 07:20 019 1 gusting 13 6.9
2020-Feb-22 07:10 009 4 gusting 13 7.0
2020-Feb-22 07:00 022 5 gusting 9 7.1
2020-Feb-22 06:50 009 6 gusting 9 7.2
2020-Feb-22 06:40 360 7 gusting 12 7.2
2020-Feb-22 06:30 009 3 gusting 10 7.2
2020-Feb-22 06:20 360 5 gusting 13 7.3
2020-Feb-22 06:10 360 4 gusting 8 7.2
2020-Feb-22 06:00 360 6 gusting 12 7.3
2020-Feb-22 05:50 360 2 gusting 11 7.4
2020-Feb-22 05:40 360 2 gusting 13 7.5
2020-Feb-22 05:30 022 2 gusting 12 7.6
2020-Feb-22 05:10 360 2 gusting 12 7.8
2020-Feb-22 05:00 022 3 gusting 14 7.9
2020-Feb-22 04:50 360 3 gusting 12 8.0
2020-Feb-22 04:40 015 3 gusting 12 8.0
2020-Feb-22 04:30 024 8 gusting 15 8.1
2020-Feb-22 04:20 011 7 gusting 15 8.1
2020-Feb-22 04:10 017 9 gusting 18 8.2
2020-Feb-22 04:00 360 3 gusting 17 8.2
2020-Feb-22 03:50 360 3 gusting 13 8.2
2020-Feb-22 03:30 026 7 gusting 14 8.3
2020-Feb-22 03:20 360 7 gusting 15 8.4
2020-Feb-22 03:10 020 8 gusting 16 8.6
2020-Feb-22 03:00 005 8 gusting 13 8.7
2020-Feb-22 02:50 360 3 gusting 12 8.7
2020-Feb-22 02:40 360 5 gusting 13 8.7
2020-Feb-22 02:30 360 6 gusting 13 8.9
2020-Feb-22 02:20 360 6 gusting 16 9.0
2020-Feb-22 02:10 023 3 gusting 15 9.1
2020-Feb-22 02:00 360 5 gusting 12 9.3
2020-Feb-22 01:50 360 1 gusting 15 9.4
2020-Feb-22 01:40 360 12 gusting 13 9.4
2020-Feb-22 01:30 360 7 gusting 13 9.5
2020-Feb-22 01:20 360 4 gusting 13 9.6
2020-Feb-22 01:10 360 3 gusting 17 9.6
2020-Feb-22 01:00 360 2 gusting 13 9.6
2020-Feb-22 00:50 360 9 gusting 15 9.6
2020-Feb-22 00:40 360 5 gusting 14 9.6
2020-Feb-22 00:30 010 4 gusting 13 9.6
2020-Feb-22 00:20 360 2 gusting 17 9.6
2020-Feb-22 00:10 360 3 gusting 14 9.7
2020-Feb-22 00:00 360 4 gusting 13 9.8
2020-Feb-21 23:50 360 9 gusting 13 9.9
2020-Feb-21 23:40 360 6 gusting 13 10.0
2020-Feb-21 23:30 360 3 gusting 12 10.1
2020-Feb-21 23:20 360 4 gusting 13 10.3
2020-Feb-21 23:10 360 5 gusting 11 10.4
2020-Feb-21 23:00 360 5 gusting 13 10.5
2020-Feb-21 22:50 360 5 gusting 14 10.7
2020-Feb-21 22:40 360 4 gusting 13 10.9
2020-Feb-21 22:30 360 4 gusting 13 11.0
2020-Feb-21 22:20 360 4 gusting 18 11.1
2020-Feb-21 22:10 360 5 gusting 15 11.1
2020-Feb-21 22:00 360 7 gusting 15 11.2
2020-Feb-21 21:50 014 6 gusting 16 11.4
2020-Feb-21 21:40 360 3 gusting 13 11.8
2020-Feb-21 21:30 360 6 gusting 13 12.2
2020-Feb-21 21:20 014 4 gusting 13 12.3
2020-Feb-21 21:10 360 1 gusting 14 12.5
2020-Feb-21 21:00 360 11 gusting 15 12.7
2020-Feb-21 20:50 011 10 gusting 14 12.9
2020-Feb-21 20:40 009 11 gusting 13 13.2
2020-Feb-21 20:30 360 5 gusting 15 13.1
2020-Feb-21 20:20 013 4 gusting 17 13.5
2020-Feb-21 20:10 025 11 gusting 13 13.4
2020-Feb-21 20:00 360 4 gusting 16 13.6
2020-Feb-21 19:50 360 7 gusting 16 13.8
2020-Feb-21 19:40 360 8 gusting 13 14.1
2020-Feb-21 19:30 020 8 gusting 13 14.1
2020-Feb-21 19:20 009 11 gusting 15 13.8
2020-Feb-21 19:10 018 4 gusting 15 14.1
2020-Feb-21 19:00 360 6 gusting 13 14.1
2020-Feb-21 18:50 360 4 gusting 13 14.2
2020-Feb-21 18:40 360 6 gusting 13 14.8
2020-Feb-21 18:30 360 4 gusting 14 14.7
2020-Feb-21 18:20 360 10 gusting 13 14.7
2020-Feb-21 18:10 360 4 gusting 15 14.3
2020-Feb-21 18:00 360 6 gusting 13 14.4
2020-Feb-21 17:50 026 5 gusting 14 14.7
2020-Feb-21 17:40 360 8 gusting 18 14.3
2020-Feb-21 17:30 009 6 gusting 19 14.0
2020-Feb-21 17:20 360 10 gusting 15 14.3
2020-Feb-21 17:10 019 8 gusting 12 14.1
2020-Feb-21 17:00 360 9 gusting 13 13.8
2020-Feb-21 16:50 360 13 gusting 13 13.2
2020-Feb-21 16:40 360 3 gusting 13 13.1
2020-Feb-21 16:30 360 12 gusting 13 13.0
2020-Feb-21 16:20 010 11 gusting 13 12.9
2020-Feb-21 16:00 360 5 gusting 16 12.6
2020-Feb-21 15:50 017 4 gusting 12 11.7
2020-Feb-21 15:40 360 10 gusting 14 11.5
2020-Feb-21 15:30 011 8 gusting 15 11.8
2020-Feb-21 15:20 360 9 gusting 17 11.6
2020-Feb-21 15:10 360 4 gusting 14 11.2
2020-Feb-21 15:00 019 4 gusting 16 11.2
2020-Feb-21 14:50 013 10 gusting 13 10.7
2020-Feb-21 14:40 360 10 gusting 16 10.8
2020-Feb-21 14:20 016 10 gusting 13 11.3
2020-Feb-21 14:10 360 7 gusting 13 11.0
2020-Feb-21 14:00 360 12 gusting 13 11.0
2020-Feb-21 13:50 360 4 gusting 13 11.4
2020-Feb-21 13:40 018 7 gusting 14 11.5
2020-Feb-21 13:30 360 9 gusting 13 11.2
2020-Feb-21 13:20 360 2 gusting 11 11.4
2020-Feb-21 13:10 360 2 gusting 11 11.3
2020-Feb-21 13:00 019 6 gusting 13 11.6
2020-Feb-21 12:50 360 11 gusting 14 12.1
2020-Feb-21 12:40 360 3 gusting 13 12.2
2020-Feb-21 12:30 360 6 gusting 11 12.1
2020-Feb-21 12:20 011 3 gusting 13 12.1
2020-Feb-21 12:10 360 5 gusting 14 12.3
2020-Feb-21 12:00 009 3 gusting 12 12.6
2020-Feb-21 11:50 360 2 gusting 16 12.6
2020-Feb-21 11:40 360 11 gusting 16 12.8
2020-Feb-21 11:30 360 4 gusting 13 13.1
2020-Feb-21 11:20 360 3 gusting 10 13.3
2020-Feb-21 11:10 012 6 gusting 13 13.4
2020-Feb-21 11:00 360 2 gusting 13 13.7
2020-Feb-21 10:50 023 8 gusting 12 14.1
2020-Feb-21 10:40 023 5 gusting 13 14.6
2020-Feb-21 10:30 360 8 gusting 13 14.8
2020-Feb-21 10:20 360 4 gusting 13 15.6
2020-Feb-21 10:10 360 2 gusting 13 16.7
2020-Feb-21 10:00 360 4 gusting 14 17.9